Location: Arbon
(43.0005°N, 0.7472°E)
Time: 21:29:10
(UTC+00:00)

Altair - Pass Details

Date: 26 November 2020
Orbit: 1501 x 1682 km, 47.2° (Epoch: 26 January)

Event Time Altitude Azimuth Distance (km) Brightness Sun altitude
Rises 04:06:04 0° 295° (WNW) 4,639 - -31.9°
Reaches altitude 10° 04:09:17 10° 288° (WNW) 3,661 - -31.3°
Maximum altitude 04:17:36 40° 223° (SW) 2,109 - -29.8°
Exits shadow 04:17:58 40° 218° (SW) 2,115 7.9 -29.7°
Drops below altitude 10° 04:26:07 10° 158° (SSE) 3,737 9.8 -28.2°
Sets 04:29:27 0° 151° (SSE) 4,744 10.5 -27.6°
